User: anonymous   Login
Location: Brno
(49.2000°N, 16.6330°E)
Time: 06:23:17
(UTC+02:00)
Language:

Meteor 1-4 Rocket - Orbit

View from above orbital plane
View from above orbital plane
View from above satellite
View from above satellite

Ground track
Ground track

The orbit data is extracted from the following two-line orbital elements,

1 04394U 70037B   15244.88848441  .00002684  00000-0  10322-3 0  9999
2 04394  81.2420  61.6548 0043475 192.8847 167.1281 15.25131955464929
Epoch (UTC): 01 September 2015 21:19:25
Eccentricity: 0.0043475
inclination: 81.2420°
perigee height: 460 km
apogee height: 520 km
right ascension of ascending node: 61.6548°
argument of perigee: 192.8847°
revolutions per day: 15.25131955
mean anomaly at epoch: 167.1281°
orbit number at epoch: 46492

The dashed part of the orbit path shows where the satellite is in the earth's shadow,  

DLR